• In Spain
  • List of Countries
  • For 7 days
  • Water Temperature
  • Satellite Maps
  • Weather Map
  • Weather Widgets
  • user-avatar
    Login

    Hourly Weather Quarteira

    Today, 23 January, Tuesday

    Time Temperature Precipitation Wind Pressure Humidity
    00:00 +10°C° 0 mm 4 mps 769 mmHg 96%
    01:00 +8°C° 0 mm 4 mps 769 mmHg 96%
    02:00 +8°C° 0 mm 4 mps 769 mmHg 97%
    03:00 +7°C° 0 mm 4 mps 769 mmHg 97%
    04:00 +7°C° 0 mm 4 mps 769 mmHg 97%
    05:00 +7°C° 0 mm 4 mps 769 mmHg 96%
    06:00 +8°C° 0 mm 3 mps 769 mmHg 95%
    07:00 +9°C° 0 mm 3 mps 769 mmHg 93%
    08:00 +9°C° 0 mm 3 mps 770 mmHg 91%
    09:00 +12°C° 0 mm 3 mps 770 mmHg 82%
    10:00 +14°C° 0 mm 3 mps 770 mmHg 73%
    11:00 +17°C° 0 mm 2 mps 770 mmHg 64%
    12:00 +18°C° 0 mm 2 mps 769 mmHg 62%
    13:00 +19°C° 0 mm 2 mps 769 mmHg 61%
    14:00 +19°C° 0 mm 2 mps 768 mmHg 59%
    15:00 +18°C° 0 mm 2 mps 768 mmHg 68%
    16:00 +16°C° 0 mm 2 mps 768 mmHg 77%
    17:00 +14°C° 0 mm 2 mps 768 mmHg 86%
    18:00 +13°C° 0 mm 2 mps 769 mmHg 87%
    19:00 +11°C° 0 mm 3 mps 769 mmHg 88%
    20:00 +11°C° 0 mm 3 mps 769 mmHg 89%
    21:00 +10°C° 0 mm 3 mps 769 mmHg 90%
    22:00 +10°C° 0 mm 3 mps 769 mmHg 90%
    23:00 +9°C° 0 mm 3 mps 769 mmHg 90%

    Tomorrow, 24 January, Wednesday

    Time Temperature Precipitation Wind Pressure Humidity
    00:00 +9°C° 0 mm 3 mps 769 mmHg 91%
    01:00 +9°C° 0 mm 3 mps 769 mmHg 92%
    02:00 +8°C° 0 mm 3 mps 769 mmHg 92%
    03:00 +8°C° 0 mm 3 mps 768 mmHg 92%
    04:00 +8°C° 0 mm 3 mps 768 mmHg 92%
    05:00 +8°C° 0 mm 2 mps 768 mmHg 92%
    06:00 +8°C° 0 mm 2 mps 768 mmHg 89%
    07:00 +9°C° 0 mm 2 mps 769 mmHg 86%
    08:00 +10°C° 0 mm 2 mps 769 mmHg 83%
    09:00 +13°C° 0 mm 2 mps 769 mmHg 75%
    10:00 +15°C° 0 mm 2 mps 769 mmHg 68%
    11:00 +19°C° 0 mm 1 mps 769 mmHg 60%
    12:00 +18°C° 0 mm 2 mps 768 mmHg 59%
    13:00 +19°C° 0 mm 2 mps 768 mmHg 57%
    14:00 +19°C° 0 mm 2 mps 768 mmHg 56%
    15:00 +17°C° 0 mm 2 mps 768 mmHg 66%
    16:00 +15°C° 0 mm 2 mps 768 mmHg 75%
    17:00 +13°C° 0 mm 2 mps 768 mmHg 85%
    18:00 +13°C° 0 mm 2 mps 768 mmHg 87%
    19:00 +11°C° 0 mm 3 mps 768 mmHg 90%
    20:00 +10°C° 0 mm 3 mps 769 mmHg 92%
    21:00 +10°C° 0 mm 3 mps 769 mmHg 92%
    22:00 +9°C° 0 mm 3 mps 768 mmHg 93%
    23:00 +9°C° 0 mm 3 mps 768 mmHg 94%

    Day after tomorrow, 25 January, Thursday

    Time Temperature Precipitation Wind Pressure Humidity
    00:00 +9°C° 0 mm 3 mps 768 mmHg 94%
    01:00 +8°C° 0 mm 3 mps 768 mmHg 94%
    02:00 +8°C° 0 mm 3 mps 768 mmHg 93%
    03:00 +8°C° 0 mm 3 mps 768 mmHg 93%
    04:00 +8°C° 0 mm 2 mps 767 mmHg 92%
    05:00 +8°C° 0 mm 2 mps 767 mmHg 91%
    06:00 +9°C° 0 mm 2 mps 767 mmHg 89%
    07:00 +10°C° 0 mm 2 mps 768 mmHg 87%
    08:00 +12°C° 0 mm 1 mps 768 mmHg 85%
    09:00 +14°C° 0 mm 2 mps 768 mmHg 82%
    10:00 +16°C° 0 mm 3 mps 768 mmHg 79%
    11:00 +18°C° 0 mm 3 mps 768 mmHg 77%
    12:00 +17°C° 0 mm 4 mps 768 mmHg 78%
    13:00 +15°C° 0 mm 5 mps 767 mmHg 79%
    14:00 +14°C° 0 mm 6 mps 767 mmHg 81%
    15:00 +13°C° 0 mm 6 mps 767 mmHg 81%
    16:00 +11°C° 0 mm 6 mps 767 mmHg 81%
    17:00 +10°C° 0 mm 6 mps 768 mmHg 81%
    18:00 +9°C° 0 mm 6 mps 768 mmHg 81%
    19:00 +8°C° 0 mm 6 mps 769 mmHg 82%
    20:00 +6°C° 0 mm 7 mps 770 mmHg 83%
    21:00 +6°C° 0 mm 7 mps 770 mmHg 85%
    22:00 +5°C° 0 mm 7 mps 770 mmHg 87%
    23:00 +5°C° 0 mm 7 mps 770 mmHg 88%

    26 January, Friday

    Time Temperature Precipitation Wind Pressure Humidity
    00:00 +4°C° 0 mm 7 mps 770 mmHg 89%
    01:00 +4°C° 0 mm 7 mps 770 mmHg 89%
    02:00 +4°C° 0 mm 7 mps 770 mmHg 90%
    03:00 +4°C° 0 mm 6 mps 771 mmHg 90%
    04:00 +3°C° 0 mm 6 mps 771 mmHg 90%
    05:00 +3°C° 0 mm 6 mps 771 mmHg 90%
    06:00 +4°C° 0 mm 6 mps 771 mmHg 87%
    07:00 +5°C° 0 mm 6 mps 771 mmHg 83%
    08:00 +7°C° 0 mm 6 mps 772 mmHg 80%
    09:00 +8°C° 0 mm 6 mps 772 mmHg 72%
    10:00 +10°C° 0 mm 7 mps 772 mmHg 63%
    11:00 +11°C° 0 mm 8 mps 773 mmHg 55%
    12:00 +12°C° 0 mm 7 mps 772 mmHg 52%
    13:00 +12°C° 0 mm 7 mps 772 mmHg 49%
    14:00 +14°C° 0 mm 7 mps 771 mmHg 46%
    15:00 +11°C° 0 mm 6 mps 772 mmHg 52%
    16:00 +10°C° 0 mm 6 mps 772 mmHg 58%
    17:00 +8°C° 0 mm 6 mps 772 mmHg 64%
    18:00 +7°C° 0 mm 6 mps 773 mmHg 66%
    19:00 +6°C° 0 mm 7 mps 773 mmHg 69%
    20:00 +5°C° 0 mm 7 mps 774 mmHg 72%
    21:00 +4°C° 0 mm 6 mps 774 mmHg 76%
    22:00 +4°C° 0 mm 6 mps 774 mmHg 81%
    23:00 +3°C° 0 mm 6 mps 774 mmHg 85%

    27 January, Saturday

    Time Temperature Precipitation Wind Pressure Humidity
    00:00 +3°C° 0 mm 5 mps 774 mmHg 86%
    01:00 +3°C° 0 mm 5 mps 774 mmHg 88%
    02:00 +2°C° 0 mm 5 mps 773 mmHg 89%
    03:00 +2°C° 0 mm 5 mps 773 mmHg 89%
    04:00 +2°C° 0 mm 6 mps 773 mmHg 89%
    05:00 +2°C° 0 mm 6 mps 773 mmHg 89%
    06:00 +2°C° 0 mm 6 mps 773 mmHg 85%
    07:00 +3°C° 0 mm 6 mps 774 mmHg 80%
    08:00 +4°C° 0 mm 6 mps 774 mmHg 76%
    09:00 +7°C° 0 mm 6 mps 774 mmHg 68%
    10:00 +9°C° 0 mm 6 mps 774 mmHg 60%
    11:00 +11°C° 0 mm 6 mps 774 mmHg 52%
    12:00 +13°C° 0 mm 5 mps 773 mmHg 51%
    13:00 +13°C° 0 mm 5 mps 772 mmHg 51%
    14:00 +14°C° 0 mm 5 mps 772 mmHg 50%
    15:00 +12°C° 0 mm 5 mps 771 mmHg 57%
    16:00 +10°C° 0 mm 5 mps 771 mmHg 64%
    17:00 +8°C° 0 mm 5 mps 771 mmHg 71%
    18:00 +8°C° 0 mm 5 mps 771 mmHg 73%
    19:00 +7°C° 0 mm 5 mps 771 mmHg 76%
    20:00 +6°C° 0 mm 5 mps 771 mmHg 79%
    21:00 +6°C° 0 mm 5 mps 771 mmHg 83%
    22:00 +6°C° 0 mm 5 mps 770 mmHg 87%
    23:00 +5°C° 0 mm 4 mps 770 mmHg 92%

    28 January, Sunday

    Time Temperature Precipitation Wind Pressure Humidity
    00:00 +5°C° 0 mm 4 mps 769 mmHg 93%
    01:00 +5°C° 0 mm 4 mps 768 mmHg 94%
    02:00 +5°C° 0 mm 4 mps 768 mmHg 95%
    03:00 +5°C° 0 mm 5 mps 767 mmHg 94%
    04:00 +4°C° 0 mm 6 mps 767 mmHg 93%
    05:00 +4°C° 0 mm 7 mps 767 mmHg 92%
    06:00 +5°C° 0 mm 8 mps 767 mmHg 84%
    07:00 +5°C° 0 mm 9 mps 768 mmHg 76%
    08:00 +5°C° 0 mm 9 mps 768 mmHg 67%
    09:00 +7°C° 0 mm 9 mps 768 mmHg 60%
    10:00 +8°C° 0 mm 9 mps 768 mmHg 53%
    11:00 +11°C° 0 mm 9 mps 769 mmHg 46%
    12:00 +12°C° 0 mm 8 mps 768 mmHg 45%
    13:00 +14°C° 0 mm 7 mps 768 mmHg 43%
    14:00 +14°C° 0 mm 6 mps 767 mmHg 41%
    15:00 +13°C° 0 mm 5 mps 767 mmHg 47%
    16:00 +10°C° 0 mm 5 mps 767 mmHg 53%
    17:00 +10°C° 0 mm 4 mps 767 mmHg 59%
    18:00 +8°C° 0 mm 5 mps 767 mmHg 59%
    19:00 +7°C° 0 mm 5 mps 767 mmHg 59%
    20:00 +5°C° 0 mm 6 mps 767 mmHg 59%
    21:00 +5°C° 0 mm 6 mps 767 mmHg 60%
    22:00 +5°C° 0 mm 6 mps 767 mmHg 61%
    23:00 +5°C° 0 mm 6 mps 766 mmHg 62%
    Show more